Weather History for KI75 - September, 2013

Change the Weather History Date:

Wednesday, September 11, 2013

  Actual Average (KLWD) Record (KLWD)
Temperature  
Mean Temperature 76 °F 67 °F  
Max Temperature 85 °F 78 °F - ()
Min Temperature 68 °F 56 °F - ()
Degree Days  
Heating Degree Days 0 2  
Month to date heating degree days 13  
Since 1 July heating degree days 21  
Cooling Degree Days 11 4  
Month to date cooling degree days 55  
Year to date cooling degree days 893  
Growing Degree Days 26 (Base 50)    
Moisture  
Dew Point 65 °F    
Average Humidity 69    
Maximum Humidity 88    
Minimum Humidity 50    
Precipitation  
Precipitation 0.00 in 0.11 in - ()
Month to date precipitation 1.62  
Sea Level Pressure  
Sea Level Pressure 30.09 in    
Wind  
Wind Speed 5 mph (WSW)    
Max Wind Speed 9 mph    
Max Gust Speed -    
Visibility 10 miles    
Events Rain    
T = Trace of Precipitation, MM = Missing Value Source: NWS Daily Summary

Daily Weather History Graph

Daily Weather History Graph

Search for Another Location

Airport or City:

Trip Planner

Search our weather history database for the weather conditions in past years. The results will help you decide how hot, cold, wet, or windy it might be!

Date:

Astronomy

Sep. 11, 2013 Rise Set
Actual Time 6:51 AM CDT 7:30 PM CDT
Civil Twilight 6:23 AM CDT 7:57 PM CDT
Nautical Twilight 5:50 AM CDT 8:30 PM CDT
Astronomical Twilight 5:17 AM CDT 9:04 PM CDT
Moon 1:23 PM CDT (9/11) 11:23 PM CDT (9/11)
Length of Visible Light 13h 34m
Length of Day
12h 38m
Waxing Crescent, 39% of the Moon is Illuminated
Sep 11
Waxing Crescent
Sep 12
First Quarter
Sep 19
Full
Sep 26
Last Quarter
Oct 4
New

Hourly Weather History & Observations

Time (CDT) Temp. Heat Index Dew Point Humidity Pressure Visibility Wind Dir Wind Speed Gust Speed Precip Events Conditions
12:15 AM 79.0 °F - 61.3 °F 55% 30.03 in 10.0 mi South 8.1 mph - N/A   Clear
12:35 AM 78.6 °F - 61.7 °F 56% 30.04 in 10.0 mi SSW 8.1 mph - N/A   Mostly Cloudy
12:55 AM 78.4 °F - 61.7 °F 56% 30.04 in 10.0 mi SSW 9.2 mph - N/A   Mostly Cloudy
1:15 AM 77.4 °F - 61.9 °F 59% 30.05 in 10.0 mi SSW 8.1 mph - N/A   Scattered Clouds
1:55 AM 77.0 °F - 62.1 °F 60% 30.05 in 10.0 mi SW 9.2 mph - N/A   Clear
2:15 AM 76.5 °F - 62.4 °F 62% 30.06 in 10.0 mi SW 8.1 mph - N/A   Clear
2:35 AM 75.9 °F - 63.0 °F 64% 30.06 in 10.0 mi SW 8.1 mph - N/A   Clear
2:55 AM 75.2 °F - 63.5 °F 67% 30.07 in 10.0 mi WSW 6.9 mph - N/A   Clear
3:15 AM 74.7 °F - 64.2 °F 70% 30.07 in 10.0 mi WSW 5.8 mph - N/A   Clear
3:35 AM 74.3 °F - 64.4 °F 71% 30.07 in 10.0 mi WSW 4.6 mph - N/A   Clear
3:55 AM 73.4 °F - 64.8 °F 74% 30.07 in 10.0 mi WSW 3.5 mph - N/A   Clear
4:15 AM 73.0 °F - 64.8 °F 75% 30.07 in 10.0 mi WSW 4.6 mph - N/A   Mostly Cloudy
4:35 AM 72.9 °F - 64.4 °F 75% 30.08 in 10.0 mi West 6.9 mph - N/A   Mostly Cloudy
4:55 AM 72.7 °F - 63.9 °F 74% 30.08 in 10.0 mi West 8.1 mph - N/A   Scattered Clouds
5:15 AM 71.2 °F - 63.7 °F 77% 30.09 in 10.0 mi West 5.8 mph - N/A   Clear
5:35 AM 71.2 °F - 63.5 °F 76% 30.09 in 10.0 mi West 4.6 mph - N/A   Scattered Clouds
5:55 AM 70.7 °F - 63.7 °F 78% 30.09 in 10.0 mi WSW 3.5 mph - N/A   Scattered Clouds
6:15 AM 70.2 °F - 63.9 °F 80% 30.09 in 10.0 mi Calm Calm - N/A   Mostly Cloudy
6:35 AM 70.0 °F - 63.9 °F 81% 30.09 in 10.0 mi Calm Calm - N/A   Mostly Cloudy
6:55 AM 68.9 °F - 63.5 °F 83% 30.10 in 10.0 mi Calm Calm - N/A   Mostly Cloudy
7:15 AM 69.3 °F - 63.9 °F 83% 30.10 in 5.0 mi Calm Calm - N/A   Haze
7:35 AM 69.8 °F - 64.4 °F 83% 30.10 in 10.0 mi SSW 3.5 mph - N/A   Scattered Clouds
7:55 AM 70.3 °F - 64.6 °F 82% 30.10 in 10.0 mi Calm Calm - N/A Rain Light Rain
8:15 AM 70.2 °F - 65.8 °F 86% 30.10 in 10.0 mi Calm Calm - N/A Rain Light Rain
8:35 AM 70.2 °F - 66.4 °F 88% 30.10 in 10.0 mi Calm Calm - N/A Rain Light Rain
8:55 AM 70.7 °F - 66.6 °F 87% 30.10 in 10.0 mi Calm Calm - N/A   Mostly Cloudy
9:15 AM 71.2 °F - 66.4 °F 85% 30.11 in 10.0 mi Calm Calm - N/A   Scattered Clouds
9:35 AM 72.5 °F - 65.8 °F 80% 30.12 in 10.0 mi Calm Calm - N/A   Scattered Clouds
9:55 AM 73.6 °F - 65.8 °F 77% 30.12 in 10.0 mi Calm Calm - N/A   Scattered Clouds
10:15 AM 73.9 °F - 65.1 °F 74% 30.13 in 10.0 mi Calm Calm - N/A   Mostly Cloudy
10:27 AM 75.2 °F - 64.4 °F 69% 30.13 in 10.0 mi NW 3.5 mph - N/A   Scattered Clouds
10:35 AM 74.7 °F - 65.5 °F 73% 30.13 in 10.0 mi Calm Calm - N/A   Scattered Clouds
10:55 AM 75.0 °F - 64.9 °F 71% 30.13 in 10.0 mi Calm Calm - N/A   Scattered Clouds
11:15 AM 74.8 °F - 65.7 °F 73% 30.13 in 10.0 mi Calm Calm - N/A Rain Light Rain
11:35 AM 74.8 °F - 65.5 °F 73% 30.13 in 10.0 mi Calm Calm - N/A   Light Drizzle
11:55 AM 74.8 °F - 64.9 °F 71% 30.13 in 10.0 mi Calm Calm - N/A   Mostly Cloudy
12:15 PM 74.7 °F - 67.1 °F 77% 30.12 in 10.0 mi South 3.5 mph - N/A   Light Drizzle
12:35 PM 75.7 °F - 67.1 °F 74% 30.12 in 10.0 mi South 3.5 mph - N/A   Mostly Cloudy
12:55 PM 77.4 °F - 66.4 °F 69% 30.12 in 10.0 mi SSW 3.5 mph - N/A   Mostly Cloudy
1:15 PM 77.9 °F - 66.2 °F 67% 30.12 in 10.0 mi SSW 4.6 mph - N/A   Mostly Cloudy
1:35 PM 80.4 °F 82.3 °F 65.5 °F 60% 30.11 in 10.0 mi SSW 5.8 mph - N/A   Scattered Clouds
1:55 PM 81.9 °F 83.9 °F 65.7 °F 58% 30.09 in 10.0 mi SW 4.6 mph - N/A   Scattered Clouds
2:15 PM 81.7 °F 83.6 °F 65.5 °F 58% 30.09 in 10.0 mi SW 5.8 mph - N/A   Mostly Cloudy
2:35 PM 82.6 °F 84.7 °F 65.8 °F 57% 30.09 in 10.0 mi SW 3.5 mph - N/A   Overcast
2:55 PM 82.8 °F 84.7 °F 65.7 °F 56% 30.09 in 10.0 mi WSW 3.5 mph - N/A   Scattered Clouds
3:15 PM 83.8 °F 85.3 °F 64.8 °F 52% 30.08 in 10.0 mi WSW 3.5 mph - N/A   Scattered Clouds
3:35 PM 83.7 °F 85.5 °F 65.5 °F 54% 30.08 in 10.0 mi WNW 5.8 mph - N/A   Scattered Clouds
3:55 PM 84.7 °F 86.6 °F 65.1 °F 52% 30.07 in 10.0 mi WSW 3.5 mph - N/A   Scattered Clouds
4:15 PM 84.6 °F 86.3 °F 65.1 °F 52% 30.07 in 10.0 mi West 4.6 mph - N/A   Mostly Cloudy
4:35 PM 84.6 °F 86.1 °F 64.4 °F 51% 30.06 in 10.0 mi West 9.2 mph - N/A   Mostly Cloudy
4:55 PM 84.7 °F 86.1 °F 64.2 °F 50% 30.06 in 10.0 mi WNW 6.9 mph - N/A   Mostly Cloudy
5:15 PM 84.0 °F 85.6 °F 64.4 °F 52% 30.06 in 10.0 mi West 5.8 mph - N/A   Mostly Cloudy
5:35 PM 83.5 °F 85.3 °F 65.1 °F 54% 30.06 in 10.0 mi WNW 8.1 mph - N/A   Scattered Clouds
5:55 PM 84.9 °F 86.6 °F 64.8 °F 51% 30.06 in 10.0 mi WNW 9.2 mph - N/A   Scattered Clouds
6:15 PM 82.0 °F 83.9 °F 65.7 °F 57% 30.06 in 10.0 mi NW 6.9 mph - N/A   Scattered Clouds
6:35 PM 81.3 °F 83.3 °F 65.8 °F 59% 30.06 in 10.0 mi NW 5.8 mph - N/A   Mostly Cloudy
6:55 PM 80.1 °F 82.2 °F 66.6 °F 63% 30.06 in 10.0 mi NNW 4.6 mph - N/A   Scattered Clouds
7:15 PM 79.0 °F - 67.1 °F 67% 30.06 in 10.0 mi NNW 3.5 mph - N/A   Clear
7:35 PM 78.1 °F - 67.1 °F 69% 30.07 in 10.0 mi NW 4.6 mph - N/A Rain Light Rain
7:55 PM 77.0 °F - 67.5 °F 72% 30.07 in 10.0 mi NW 4.6 mph - N/A   Light Drizzle
8:15 PM 76.3 °F - 67.3 °F 74% 30.07 in 10.0 mi NW 4.6 mph - N/A   Mostly Cloudy
8:35 PM 76.6 °F - 66.2 °F 70% 30.08 in 10.0 mi NW 4.6 mph - N/A   Scattered Clouds
8:55 PM 75.4 °F - 65.5 °F 71% 30.09 in 10.0 mi NNW 3.5 mph - N/A   Scattered Clouds
9:15 PM 74.7 °F - 65.7 °F 73% 30.09 in 10.0 mi North 3.5 mph - N/A   Scattered Clouds
9:35 PM 74.3 °F - 65.8 °F 75% 30.09 in 10.0 mi Calm Calm - N/A   Clear
9:55 PM 74.1 °F - 65.8 °F 75% 30.09 in 10.0 mi Calm Calm - N/A   Mostly Cloudy
10:15 PM 74.5 °F - 66.2 °F 75% 30.09 in 10.0 mi Calm Calm - N/A   Overcast
10:35 PM 73.4 °F - 65.8 °F 77% 30.09 in 10.0 mi Calm Calm - N/A   Overcast
10:55 PM 72.1 °F - 65.7 °F 80% 30.09 in 10.0 mi Calm Calm - N/A   Mostly Cloudy
11:15 PM 71.8 °F - 65.5 °F 80% 30.09 in 10.0 mi Calm Calm - N/A   Overcast
11:35 PM 71.6 °F - 65.7 °F 81% 30.09 in 10.0 mi Calm Calm - N/A   Overcast
11:55 PM 71.2 °F - 65.7 °F 82% 30.09 in 10.0 mi SW 4.6 mph - N/A   Overcast